Wind_Gust
17 18 19 17 16 16 17 17 15 17 17 17 18 16 18 19 20 20 17 17 17 15 15 14 16 17 16 17 19 22 22 22 21 17 21 26 25 25 26 24 20 18
16 16 14 14 14 13 15 16 16 15 18 16 16 17 16 17 18 17 20 18 16 17 16 15 16 16 18 21 22 25 24 23 25 22 20 21 24 23 24 24 17 17
16 17 17 16 17 16 16 15 16 16 19 16 14 15 18 17 17 15 18 19 22 23 21 20 17 19 22 22 23 25 25 25 26 23 24 26 22 23 24 22 18 20
17 16 15 16 16 17 16 15 16 16 15 14 17 17 17 18 19 20 19 22 22 21 21 20 17 18 21 24 21 23 22 23 25 25 26 25 24 25 22 25 23 24
20 19 17 16 17 18 16 16 17 17 19 18 16 16 17 18 19 19 19 20 23 21 21 21 17 17 19 18 22 23 23 24 23 23 26 25 26 23 22 22 22 24
19 20 18 16 16 16 16 16 18 18 19 18 19 17 18 17 18 22 14 14 15 21 18 18 17 17 16 16 21 24 22 19 22 25 25 23 20 20 20 18 19 21
21 20 20 18 16 15 16 16 15 16 18 17 16 17 16 18 18 20 17 19 20 21 20 18 18 18 19 19 21 19 15 19 16 19 23 22 16 16 20 21 21 21
19 20 21 20 18 16 16 17 17 18 17 16 16 16 16 18 20 18 15 18 19 20 21 22 21 22 21 17 16 17 17 18 18 24 24 21 17 24 22 21 22 23
18 20 22 20 20 19 16 16 17 17 16 16 17 18 20 20 19 20 20 20 19 19 18 18 19 20 20 18 18 18 19 19 21 23 21 21 21 22 22 21 22 23
21 20 20 20 19 19 20 18 16 15 16 17 17 17 19 20 20 19 18 19 19 20 21 19 19 20 20 18 20 19 19 23 23 22 22 22 24 24 24 24 23 22
23 21 20 20 19 20 20 19 17 16 14 16 17 18 17 17 19 16 14 16 13 14 18 20 20 21 21 21 21 21 21 19 21 22 23 24 24 23 18 23 23 23
26 24 23 22 20 19 19 20 18 16 16 16 17 18 17 17 19 17 20 21 21 22 20 20 20 20 21 22 21 21 21 23 23 22 22 22 21 21 22 22 22 23
27 27 28 24 21 20 20 20 19 17 17 18 17 18 18 18 21 20 21 21 21 18 17 20 20 20 18 17 18 20 22 22 22 21 20 21 20 21 21 20 21 21
27 27 26 27 25 23 20 20 19 18 17 17 15 18 19 20 21 21 22 22 22 23 23 23 22 20 19 19 18 20 19 18 19 18 18 18 16 17 17 18 15 16
28 26 27 28 28 24 23 21 21 19 18 18 16 16 16 20 22 22 22 22 21 22 23 23 22 20 19 21 20 19 19 18 18 20 20 18 18 19 20 17 16 17
28 27 28 28 28 28 25 23 21 21 19 18 17 17 17 18 21 21 21 22 21 21 19 19 20 20 12 14 11 17 19 20 18 19 19 17 17 18 17 19 18 20
28 28 28 27 27 27 26 26 24 22 19 18 17 17 17 17 19 21 21 21 22 21 17 13 13 11 11 13 14 13 14 17 18 19 18 18 19 19 19 20 18 20
28 28 28 27 27 27 26 24 24 23 21 18 15 16 17 18 19 21 21 21 21 20 17 15 12 9 13 14 13 13 10 16 15 16 17 19 19 20 19 19 20 20
28 28 28 29 28 28 27 25 22 23 25 23 19 15 16 17 19 18 19 20 19 20 18 15 11 10 14 15 14 13 12 11 14 15 15 15 15 16 15 15 16 20
29 29 29 29 30 30 29 26 23 22 22 23 22 21 15 13 14 13 14 13 15 16 15 14 11 10 12 12 13 14 13 11 13 12 12 13 14 14 14 15 16 16
30 30 29 29 29 30 30 29 26 25 24 23 21 22 24 25 13 12 8 8 9 10 11 9 8 9 10 11 11 12 13 9 12 11 11 10 10 11 13 14 14 13
30 30 30 29 30 29 30 29 28 28 25 22 21 21 22 20 21 19 19 16 15 18 18 9 9 7 6 9 12 14 16 14 14 13 12 12 11 9 10 10 13 16
28 30 30 30 30 29 30 30 29 29 26 22 22 22 26 27 25 23 18 16 17 19 17 16 18 16 11 9 14 18 13 14 14 14 13 13 12 10 10 10 10 11
26 28 30 30 30 30 30 29 28 28 28 24 25 23 26 21 20 20 22 21 19 17 17 18 16 18 14 6 11 15 13 18 18 16 14 14 13 11 11 12 11 9
23 27 27 28 29 29 30 29 28 26 24 25 23 21 22 21 23 23 22 21 22 21 20 18 17 16 17 12 6 10 13 14 17 18 17 14 15 14 11 11 11 9
19 23 25 26 26 24 27 28 27 28 27 26 26 22 21 23 23 24 24 23 22 24 24 23 24 24 27 20 14 11 10 13 15 17 17 17 15 16 16 12 12 12
Wind_Speed
8 7 8 7 7 7 8 9 7 9 7 8 9 8 9 9 10 11 11 9 9 9 8 8 9 10 9 8 9 11 12 13 11 9 9 9 10 13 12 13 11 9
9 8 6 7 7 6 7 7 8 7 8 8 8 7 6 8 9 9 9 10 8 8 7 7 9 9 9 8 12 14 13 13 13 9 10 12 12 12 12 14 11 9
9 9 9 9 8 9 10 8 8 8 9 8 5 7 9 8 10 9 9 11 11 10 9 10 9 10 9 10 12 12 13 13 13 12 12 14 11 9 11 11 9 11
10 9 8 8 8 10 8 8 8 8 8 7 8 9 8 9 11 12 11 11 10 9 9 10 9 8 9 10 11 10 12 11 9 12 14 12 12 12 11 11 11 10
12 10 8 8 8 9 8 8 10 10 10 9 9 9 9 10 9 10 9 8 10 11 11 12 10 9 8 8 11 11 12 10 11 11 12 13 14 12 10 10 12 13
10 11 10 8 8 9 8 9 10 10 10 11 10 9 9 10 9 10 7 9 8 10 9 9 8 8 9 8 9 12 10 9 9 13 14 13 11 9 7 9 10 10
11 11 12 10 9 8 9 9 8 8 10 9 8 9 9 10 10 12 8 9 11 9 11 10 9 10 8 9 9 10 8 8 6 9 11 10 6 6 10 12 11 12
11 9 10 11 11 10 8 9 10 9 10 9 10 7 8 10 12 10 8 10 10 11 12 13 12 13 11 8 8 10 10 9 9 12 13 10 9 14 12 10 12 13
10 9 9 10 12 11 10 8 9 9 8 8 9 9 10 10 10 9 10 10 11 10 10 9 11 12 11 9 9 9 10 10 11 12 11 10 11 12 12 10 11 12
12 11 11 10 9 9 12 11 7 7 8 8 9 9 9 10 11 11 9 10 10 10 12 10 10 11 10 10 12 10 10 12 12 11 11 11 13 13 12 12 12 11
14 12 12 12 11 10 12 11 10 8 7 9 9 10 9 8 9 9 9 9 7 6 8 10 11 11 11 11 10 10 10 10 10 11 12 12 12 11 11 11 12 11
14 14 13 13 12 11 11 11 10 9 7 7 9 10 9 9 10 7 9 10 11 12 11 11 11 10 12 12 12 11 11 12 12 12 12 11 10 10 10 10 10 11
15 15 14 14 12 11 11 10 10 9 9 8 8 9 10 10 9 11 11 12 12 10 8 10 11 11 8 7 9 10 13 13 12 12 11 9 9 9 10 9 9 9
15 16 14 14 13 13 11 11 11 10 9 9 8 10 11 11 11 11 12 12 12 12 13 12 12 11 10 10 10 10 10 10 10 10 10 9 9 6 5 7 6 8
15 14 14 15 15 13 13 12 12 11 10 9 9 9 8 10 10 11 11 12 12 12 13 12 12 10 9 10 10 10 9 9 9 9 9 9 9 9 10 6 8 9
15 15 15 15 15 15 14 13 11 11 10 9 9 9 9 10 11 11 11 12 12 11 11 10 10 10 8 12 10 9 10 8 8 8 8 8 8 9 9 10 10 8
15 15 15 15 15 14 14 14 14 11 10 9 8 9 10 9 9 12 11 10 11 11 10 7 6 6 10 11 11 10 8 8 9 8 8 9 9 9 9 9 9 10
15 16 15 15 15 15 15 14 12 12 12 10 8 9 9 8 10 11 11 10 9 11 10 7 6 8 12 12 11 11 8 8 7 7 8 9 9 9 8 8 9 9
16 16 16 16 16 16 15 13 12 12 13 13 11 8 7 8 10 10 10 9 9 11 10 8 6 9 12 13 13 12 11 8 6 7 7 7 7 7 7 7 7 8
16 16 16 17 17 17 16 15 13 12 11 10 11 13 7 6 6 7 8 7 8 8 7 6 6 8 10 11 11 12 12 9 6 6 5 6 7 7 6 7 8 8
17 17 17 16 17 17 17 16 15 14 14 11 11 12 13 12 8 5 3 2 3 4 4 3 1 5 9 9 9 11 11 9 5 4 4 4 4 5 6 7 7 6
16 17 17 17 17 16 17 17 16 16 14 13 10 10 11 11 11 11 11 9 8 8 7 3 3 7 3 6 8 10 12 7 6 5 5 4 4 3 3 4 6 8
16 17 17 17 17 17 17 17 17 16 14 11 11 12 14 15 14 13 9 9 8 6 5 5 6 11 8 3 7 11 11 6 6 5 4 5 4 4 3 3 3 4
15 16 17 17 17 17 17 16 15 15 15 13 13 11 12 10 10 10 12 11 11 10 8 5 7 12 12 5 4 12 10 8 8 7 6 5 5 4 3 4 4 7
12 15 15 15 16 16 16 16 15 14 13 13 13 11 10 10 12 12 12 11 12 12 16 11 9 10 14 10 6 9 7 6 7 8 7 6 6 5 4 4 4 4
9 12 14 14 15 13 13 14 14 14 14 14 14 11 10 11 11 13 14 12 12 13 13 12 10 9 13 16 12 10 9 3 6 8 8 8 6 6 6 4 4 4
Wind_Direction
300 295 290 287 286 283 280 270 255 250 245 245 242 239 233 230 226 215 203 203 195 195 191 196 185 190 190 188 188 197 200 201 198 197 197 208 220 208 202 202 204 205
299 293 280 274 278 269 262 258 261 254 255 251 252 253 243 230 227 214 202 202 195 194 186 190 189 186 187 190 193 200 201 199 201 202 193 201 219 216 209 205 199 201
306 297 293 288 275 266 259 249 242 245 247 247 226 246 246 230 227 215 214 210 205 195 196 195 184 183 191 196 200 202 204 202 205 204 205 206 207 205 214 204 196 199
317 305 297 282 269 269 263 252 248 245 244 235 219 215 226 236 232 220 215 212 203 198 200 191 191 180 187 202 207 206 202 201 200 206 206 206 209 210 208 208 204 204
318 309 287 274 268 268 266 260 256 244 239 234 227 215 210 223 230 221 207 212 211 205 202 196 189 186 186 196 206 205 201 196 190 201 208 207 208 206 203 204 205 211
322 319 308 285 272 269 259 255 253 252 242 235 227 217 202 204 221 226 193 208 210 213 191 189 183 181 182 195 203 211 203 198 196 202 209 206 199 197 189 203 197 201
323 323 318 304 286 264 256 250 243 238 242 238 231 223 208 201 201 221 199 206 210 214 205 185 184 184 179 193 198 204 193 177 180 204 214 210 170 164 202 206 204 206
323 328 335 328 306 287 261 255 249 244 239 237 236 230 211 216 218 204 171 206 214 212 210 198 192 193 187 188 198 195 187 175 176 205 209 191 156 194 200 192 199 209
328 331 332 336 332 315 297 276 263 261 249 236 230 230 224 216 222 220 210 206 211 213 212 206 200 199 196 170 193 188 176 183 200 203 195 191 185 200 195 187 198 208
341 335 333 333 331 328 318 305 288 266 262 244 237 237 230 216 217 213 208 213 216 218 220 215 210 205 195 176 191 184 185 197 199 204 204 201 198 201 196 197 197 200
346 343 339 334 328 322 322 318 306 289 264 248 238 236 233 224 221 216 199 195 183 201 225 229 219 214 206 187 183 188 192 198 199 208 208 206 204 200 195 198 201 202
345 347 345 339 332 323 315 316 311 299 280 254 244 238 232 225 221 201 205 194 190 203 208 223 225 216 210 204 188 177 191 197 195 199 205 207 201 202 197 198 202 204
345 341 340 340 335 324 317 313 315 307 290 266 249 239 233 228 221 214 212 212 202 191 199 226 225 217 200 206 215 197 192 198 196 199 201 201 207 204 200 199 203 204
350 343 337 337 335 331 324 322 317 310 292 266 250 239 233 231 226 219 217 212 202 195 197 208 218 213 202 203 198 202 201 200 202 203 201 204 208 195 208 202 184 189
349 346 344 341 339 335 333 330 325 313 299 275 251 237 231 228 224 222 218 210 205 200 197 200 208 209 208 204 202 199 195 196 201 203 202 201 203 188 200 182 188 204
351 350 347 345 343 342 339 334 327 320 307 286 259 243 235 227 226 226 220 210 204 200 196 196 203 209 198 196 193 192 193 197 198 203 203 204 204 206 205 199 196 207
356 352 350 350 348 345 344 342 337 326 310 296 268 246 238 228 223 226 223 221 217 208 199 195 194 195 183 193 200 191 185 194 195 197 198 203 200 202 203 199 197 201
359 356 354 354 352 352 349 343 341 343 339 317 281 250 239 230 226 224 227 221 220 218 206 199 196 185 175 187 199 200 202 200 191 194 199 209 210 206 201 193 189 192
3 1 359 360 359 357 355 348 349 358 358 349 324 271 238 233 224 228 234 229 221 220 211 197 198 185 183 184 189 192 200 205 197 195 187 196 198 199 190 184 190 188
8 7 6 5 4 5 4 0 358 1 1 354 357 350 298 234 220 232 233 230 232 228 215 196 194 178 185 182 184 185 191 200 202 185 188 189 195 193 186 183 182 184
12 11 12 11 10 9 10 11 9 7 9 14 14 15 16 356 339 298 309 291 273 266 242 203 196 160 187 182 178 179 180 196 180 161 169 170 171 186 188 182 175 163
14 16 16 17 17 16 16 16 16 14 13 15 27 25 20 15 17 11 3 357 8 7 345 336 32 13 245 191 177 177 172 179 162 156 158 151 147 151 163 164 174 179
16 17 20 21 22 23 24 23 20 19 18 13 30 37 33 28 26 23 12 7 13 22 13 6 4 6 345 234 186 178 176 169 146 147 138 135 123 126 134 142 153 187
18 18 20 21 24 26 27 28 28 27 25 24 33 31 40 38 28 22 19 15 16 19 10 18 25 19 7 340 236 201 194 157 155 150 138 131 126 110 123 125 78 43
17 22 21 21 22 24 27 30 31 29 31 30 28 34 39 43 47 35 23 16 13 17 16 20 28 21 15 3 354 284 239 152 152 146 140 144 140 127 117 119 117 83
11 16 21 23 24 18 21 30 33 35 32 36 38 35 33 37 43 51 39 19 13 15 17 13 16 26 25 25 17 13 342 310 154 146 145 144 145 140 136 122 115 111